New Richmond, WI

7:39 AM CST on February 24, 2017 (GMT -0600)
New Richmond Municipal

Weather History for KRNH - March, 2012

Change the Weather History Date:

Friday, March 9, 2012

  Actual Average (KSTP) Record (KSTP)
Temperature  
Mean Temperature 23 °F -  
Max Temperature 32 °F 31 °F 57 °F (2015)
Min Temperature 14 °F 16 °F -8 °F (2003)
Degree Days  
Heating Degree Days 42    
Moisture  
Dew Point 8 °F    
Average Humidity 57    
Maximum Humidity 79    
Minimum Humidity 37    
Precipitation  
Precipitation 0.00 in - - ()
Sea Level Pressure  
Sea Level Pressure 30.48 in    
Wind  
Wind Speed 9 mph (NNW)    
Max Wind Speed 14 mph    
Max Gust Speed 22 mph    
Visibility 10 miles    
Events      
Averages and records for this station are not official NWS values.
T = Trace of Precipitation, MM = Missing Value Source: NWS Daily Summary

Daily Weather History Graph

Daily Weather History Graph

Search for Another Location

Airport or City:

Trip Planner

Search our weather history database for the weather conditions in past years. The results will help you decide how hot, cold, wet, or windy it might be!

Date:

Astronomy

Mar. 09, 2012 Rise Set
Actual Time 6:32 AM CST 6:08 PM CST
Civil Twilight 6:03 AM CST 6:38 PM CST
Nautical Twilight 5:29 AM CST 7:12 PM CST
Astronomical Twilight 4:55 AM CST 7:47 PM CST
Moon 8:18 PM CST (3/9) 6:45 AM CST (3/9)
Length of Visible Light 12h 34m
Length of Day
11h 36m
Full, 97% of the Moon is Illuminated
Mar 9
Full
Mar 14
Last Quarter
Mar 22
New
Mar 30
First Quarter
Apr 6
Full

Hourly Weather History & Observations

Time (CST) Temp. Windchill Dew Point Humidity Pressure Visibility Wind Dir Wind Speed Gust Speed Precip Events Conditions
12:15 AM 21.2 °F 9.5 °F 6.8 °F 54% 30.36 in 10.0 mi NW 11.5 mph 18.4 mph N/A   Clear
12:35 AM 21.2 °F 8.9 °F 6.8 °F 54% 30.36 in 10.0 mi NW 12.7 mph 21.9 mph N/A   Clear
12:55 AM 19.4 °F 6.0 °F 8.6 °F 63% 30.38 in 10.0 mi WNW 13.8 mph - N/A   Clear
1:15 AM 19.4 °F 6.0 °F 6.8 °F 58% 30.39 in 10.0 mi NW 13.8 mph - N/A   Clear
1:35 AM 19.4 °F 6.6 °F 8.6 °F 63% 30.40 in 10.0 mi NW 12.7 mph 18.4 mph N/A   Clear
1:55 AM 19.4 °F 6.0 °F 8.6 °F 63% 30.41 in 10.0 mi NW 13.8 mph 17.3 mph N/A   Clear
2:15 AM 19.4 °F 7.9 °F 8.6 °F 63% 30.41 in 10.0 mi NW 10.4 mph - N/A   Clear
2:35 AM 19.4 °F 7.9 °F 8.6 °F 63% 30.42 in 10.0 mi NW 10.4 mph 16.1 mph N/A   Clear
2:55 AM 17.6 °F 4.3 °F 8.6 °F 68% 30.42 in 10.0 mi NW 12.7 mph - N/A   Clear
3:15 AM 17.6 °F 4.3 °F 8.6 °F 68% 30.43 in 10.0 mi NW 12.7 mph 18.4 mph N/A   Clear
3:35 AM 17.6 °F 5.0 °F 8.6 °F 68% 30.44 in 10.0 mi NW 11.5 mph 18.4 mph N/A   Clear
3:55 AM 17.6 °F 5.7 °F 8.6 °F 68% 30.45 in 10.0 mi NNW 10.4 mph 17.3 mph N/A   Clear
4:15 AM 17.6 °F 5.0 °F 8.6 °F 68% 30.45 in 10.0 mi NW 11.5 mph - N/A   Clear
4:35 AM 17.6 °F 5.7 °F 8.6 °F 68% 30.47 in 10.0 mi NW 10.4 mph - N/A   Clear
4:55 AM 15.8 °F 2.7 °F 8.6 °F 73% 30.48 in 10.0 mi NW 11.5 mph 16.1 mph N/A   Clear
5:15 AM 15.8 °F 4.2 °F 8.6 °F 73% 30.49 in 10.0 mi NW 9.2 mph - N/A   Clear
5:35 AM 15.8 °F 3.4 °F 8.6 °F 73% 30.49 in 10.0 mi NW 10.4 mph - N/A   Clear
5:55 AM 14.0 °F 2.9 °F 8.6 °F 79% 30.50 in 10.0 mi NNW 8.1 mph - N/A   Clear
6:15 AM 14.0 °F 1.2 °F 8.6 °F 79% 30.51 in 10.0 mi NNW 10.4 mph - N/A   Clear
6:35 AM 14.0 °F 2.0 °F 8.6 °F 79% 30.52 in 10.0 mi NNW 9.2 mph - N/A   Clear
6:55 AM 14.0 °F 2.9 °F 8.6 °F 79% 30.52 in 10.0 mi NNW 8.1 mph - N/A   Clear
7:15 AM 14.0 °F 2.9 °F 8.6 °F 79% 30.53 in 10.0 mi North 8.1 mph - N/A   Clear
7:35 AM 15.8 °F 5.1 °F 8.6 °F 73% 30.55 in 10.0 mi NNW 8.1 mph - N/A   Clear
7:55 AM 15.8 °F 6.1 °F 8.6 °F 73% 30.55 in 10.0 mi NNW 6.9 mph - N/A   Clear
8:15 AM 17.6 °F 9.3 °F 8.6 °F 68% 30.56 in 10.0 mi NNW 5.8 mph - N/A   Clear
8:35 AM 17.6 °F 8.2 °F 8.6 °F 68% 30.57 in 10.0 mi NNW 6.9 mph - N/A   Clear
8:55 AM 17.6 °F 7.3 °F 8.6 °F 68% 30.58 in 10.0 mi NNW 8.1 mph - N/A   Clear
9:15 AM 19.4 °F 12.8 °F 8.6 °F 63% 30.58 in 10.0 mi NNE 4.6 mph - N/A   Clear
9:35 AM 19.4 °F 14.3 °F 8.6 °F 63% 30.58 in 10.0 mi North 3.5 mph - N/A   Clear
9:55 AM 19.4 °F 12.8 °F 8.6 °F 63% 30.58 in 10.0 mi NNW 4.6 mph - N/A   Clear
10:15 AM 21.2 °F 14.9 °F 8.6 °F 58% 30.59 in 10.0 mi West 4.6 mph - N/A   Clear
10:35 AM 21.2 °F 16.4 °F 8.6 °F 58% 30.59 in 10.0 mi North 3.5 mph - N/A   Scattered Clouds
10:55 AM 21.2 °F 16.4 °F 8.6 °F 58% 30.59 in 10.0 mi NNW 3.5 mph - N/A   Overcast
11:15 AM 23.0 °F - 8.6 °F 54% 30.58 in 10.0 mi Calm Calm - N/A   Scattered Clouds
11:35 AM 24.8 °F - 10.4 °F 54% 30.58 in 10.0 mi Calm Calm - N/A   Clear
11:55 AM 24.8 °F - 5.0 °F 43% 30.57 in 10.0 mi Calm Calm - N/A   Clear
12:15 PM 24.8 °F - 5.0 °F 43% 30.56 in 10.0 mi Calm Calm - N/A   Scattered Clouds
12:35 PM 26.6 °F 22.6 °F 8.6 °F 47% 30.55 in 10.0 mi SE 3.5 mph - N/A   Scattered Clouds
12:55 PM 26.6 °F 22.6 °F 3.2 °F 37% 30.54 in 10.0 mi SE 3.5 mph - N/A   Scattered Clouds
1:15 PM 26.6 °F 21.2 °F 8.6 °F 47% 30.53 in 10.0 mi ESE 4.6 mph - N/A   Scattered Clouds
1:35 PM 28.4 °F 23.3 °F 8.6 °F 43% 30.52 in 10.0 mi SE 4.6 mph - N/A   Scattered Clouds
1:55 PM 28.4 °F 22.2 °F 5.0 °F 37% 30.51 in 10.0 mi SSE 5.8 mph - N/A   Scattered Clouds
2:15 PM 30.2 °F 25.4 °F 10.4 °F 44% 30.49 in 10.0 mi SSE 4.6 mph - N/A   Scattered Clouds
2:35 PM 30.2 °F 22.6 °F 10.4 °F 44% 30.48 in 10.0 mi SE 8.1 mph - N/A   Mostly Cloudy
2:55 PM 30.2 °F 22.6 °F 6.8 °F 37% 30.47 in 10.0 mi SE 8.1 mph - N/A   Scattered Clouds
3:15 PM 30.2 °F 22.6 °F 8.6 °F 40% 30.46 in 10.0 mi SSE 8.1 mph - N/A   Clear
3:35 PM 30.2 °F 21.3 °F 8.6 °F 40% 30.45 in 10.0 mi South 10.4 mph - N/A   Scattered Clouds
3:55 PM 32.0 °F 24.2 °F 8.6 °F 38% 30.43 in 10.0 mi SSE 9.2 mph - N/A   Scattered Clouds
4:15 PM 32.0 °F 24.2 °F 8.6 °F 38% 30.42 in 10.0 mi SSE 9.2 mph - N/A   Mostly Cloudy
4:35 PM 32.0 °F 23.6 °F 8.6 °F 38% 30.41 in 10.0 mi SSE 10.4 mph - N/A   Scattered Clouds
4:55 PM 32.0 °F 23.6 °F 8.6 °F 38% 30.40 in 10.0 mi SSE 10.4 mph - N/A   Mostly Cloudy
5:15 PM 32.0 °F 23.0 °F 8.6 °F 38% 30.38 in 10.0 mi ESE 11.5 mph - N/A   Scattered Clouds
5:35 PM 30.2 °F 21.3 °F 10.4 °F 44% 30.37 in 10.0 mi SE 10.4 mph 16.1 mph N/A   Clear
5:55 PM 30.2 °F 21.9 °F 10.4 °F 44% 30.37 in 10.0 mi SE 9.2 mph - N/A   Scattered Clouds
6:15 PM 30.2 °F 23.4 °F 10.4 °F 44% 30.36 in 10.0 mi SE 6.9 mph - N/A   Mostly Cloudy
6:35 PM 30.2 °F 22.6 °F 10.4 °F 44% 30.36 in 10.0 mi SE 8.1 mph - N/A   Overcast
6:55 PM 30.2 °F 23.4 °F 10.4 °F 44% 30.35 in 10.0 mi SSE 6.9 mph - N/A   Mostly Cloudy
7:15 PM 30.2 °F 21.9 °F 10.4 °F 44% 30.35 in 10.0 mi SSE 9.2 mph - N/A   Scattered Clouds
7:35 PM 30.2 °F 22.6 °F 10.4 °F 44% 30.35 in 10.0 mi SE 8.1 mph - N/A   Clear
7:55 PM 30.2 °F 22.6 °F 12.2 °F 47% 30.33 in 10.0 mi SE 8.1 mph - N/A   Clear
8:15 PM 30.2 °F 22.6 °F 12.2 °F 47% 30.33 in 10.0 mi SE 8.1 mph - N/A   Clear
8:35 PM 30.2 °F 22.6 °F 12.2 °F 47% 30.31 in 10.0 mi SSE 8.1 mph - N/A   Clear
8:55 PM 30.2 °F 23.4 °F 15.8 °F 55% 30.30 in 10.0 mi SE 6.9 mph - N/A   Clear
9:15 PM 30.2 °F 22.6 °F 14.0 °F 51% 30.28 in 10.0 mi SE 8.1 mph - N/A   Clear
9:35 PM 30.2 °F 22.6 °F 12.2 °F 47% 30.27 in 10.0 mi SSE 8.1 mph - N/A   Clear
9:55 PM 30.2 °F 21.9 °F 12.2 °F 47% 30.26 in 10.0 mi SSE 9.2 mph - N/A   Clear
10:15 PM 30.2 °F 21.3 °F 12.2 °F 47% 30.25 in 10.0 mi SSE 10.4 mph - N/A   Clear
10:35 PM 32.0 °F 24.2 °F 14.0 °F 48% 30.24 in 10.0 mi SSE 9.2 mph 17.3 mph N/A   Clear
10:55 PM 32.0 °F 23.0 °F 14.0 °F 48% 30.22 in 10.0 mi SSE 11.5 mph 20.7 mph N/A   Clear
11:15 PM 32.0 °F 23.6 °F 14.0 °F 48% 30.21 in 10.0 mi SSE 10.4 mph 19.6 mph N/A   Clear
11:35 PM 32.0 °F 23.6 °F 14.0 °F 48% 30.19 in 10.0 mi SSE 10.4 mph 16.1 mph N/A   Clear
11:55 PM 32.0 °F 23.0 °F 15.8 °F 51% 30.18 in 10.0 mi SSE 11.5 mph 18.4 mph N/A   Clear